TimePDT,TemperatureF,Dew PointF,Humidity,Sea Level PressureIn,VisibilityMPH,Wind Direction,Wind SpeedMPH,Gust SpeedMPH,PrecipitationIn,Events,Conditions,WindDirDegrees,DateUTC
12:15 AM,44.6,44.6,100,29.79,10.0,SSW,8.1,-,0.00,,Mostly Cloudy,210,2012-10-20 07:15:00
12:35 AM,46.4,46.4,100,29.80,10.0,SSW,4.6,-,0.00,,Overcast,210,2012-10-20 07:35:00
12:55 AM,46.4,44.6,93,29.79,10.0,SW,4.6,-,0.00,,Mostly Cloudy,220,2012-10-20 07:55:00
1:15 AM,46.4,46.4,100,29.81,10.0,Calm,Calm,-,0.00,,Clear,0,2012-10-20 08:15:00
1:35 AM,46.4,42.8,87,29.81,10.0,SW,6.9,-,0.00,,Clear,220,2012-10-20 08:35:00
1:55 AM,46.4,42.8,87,29.81,10.0,Calm,Calm,-,0.00,,Partly Cloudy,0,2012-10-20 08:55:00
2:15 AM,46.4,42.8,87,29.81,10.0,West,3.5,-,0.00,,Partly Cloudy,270,2012-10-20 09:15:00
2:35 AM,46.4,42.8,87,29.82,10.0,NW,5.8,-,0.00,,Clear,310,2012-10-20 09:35:00
2:55 AM,46.4,42.8,87,29.82,10.0,NW,3.5,-,0.00,,Clear,310,2012-10-20 09:55:00
3:15 AM,44.6,42.8,93,29.82,10.0,WSW,8.1,-,0.00,,Partly Cloudy,240,2012-10-20 10:15:00
3:35 AM,46.4,42.8,87,29.82,10.0,WSW,4.6,-,0.00,,Partly Cloudy,240,2012-10-20 10:35:00
3:55 AM,44.6,41.0,87,29.82,10.0,West,3.5,-,0.00,,Clear,270,2012-10-20 10:55:00
4:15 AM,44.6,41.0,87,29.83,10.0,Calm,Calm,-,0.00,,Partly Cloudy,0,2012-10-20 11:15:00
4:35 AM,42.8,39.2,87,29.83,10.0,Calm,Calm,-,0.00,,Clear,0,2012-10-20 11:35:00
4:55 AM,42.8,39.2,87,29.83,10.0,SE,4.6,-,0.00,,Clear,140,2012-10-20 11:55:00
5:15 AM,42.8,42.8,100,29.84,10.0,Calm,Calm,-,0.00,,Scattered Clouds,0,2012-10-20 12:15:00
5:55 AM,42.8,42.8,100,29.85,10.0,Calm,Calm,-,0.00,,Scattered Clouds,0,2012-10-20 12:55:00
6:15 AM,44.6,42.8,93,29.85,10.0,SSW,3.5,-,0.00,,Scattered Clouds,200,2012-10-20 13:15:00
6:35 AM,44.6,42.8,93,29.84,10.0,West,3.5,-,0.00,,Mostly Cloudy,260,2012-10-20 13:35:00
6:55 AM,46.4,41.0,81,29.85,10.0,West,3.5,-,0.00,,Mostly Cloudy,270,2012-10-20 13:55:00
7:15 AM,44.6,39.2,81,29.85,10.0,SW,4.6,-,0.00,,Overcast,230,2012-10-20 14:15:00
7:35 AM,44.6,39.2,81,29.85,10.0,West,3.5,-,0.00,,Overcast,280,2012-10-20 14:35:00
7:55 AM,44.6,39.2,81,29.85,10.0,Calm,Calm,-,0.00,,Overcast,0,2012-10-20 14:55:00
8:15 AM,44.6,39.2,81,29.84,10.0,West,3.5,-,0.00,,Scattered Clouds,280,2012-10-20 15:15:00
8:35 AM,44.6,39.2,81,29.86,10.0,SW,3.5,-,0.00,,Scattered Clouds,220,2012-10-20 15:35:00
9:15 AM,44.6,42.8,93,29.86,10.0,WSW,3.5,-,0.00,,Mostly Cloudy,240,2012-10-20 16:15:00
9:55 AM,44.6,42.8,93,29.87,10.0,South,5.8,-,0.00,,Mostly Cloudy,180,2012-10-20 16:55:00
10:15 AM,44.6,42.8,93,29.87,10.0,SSE,6.9,-,0.00,,Mostly Cloudy,150,2012-10-20 17:15:00
10:35 AM,46.4,44.6,93,29.87,10.0,SE,5.8,-,0.00,,Mostly Cloudy,130,2012-10-20 17:35:00
10:55 AM,46.4,44.6,93,29.88,10.0,SSE,5.8,-,0.00,,Mostly Cloudy,160,2012-10-20 17:55:00
11:15 AM,48.2,42.8,82,29.88,10.0,South,5.8,-,0.00,,Mostly Cloudy,170,2012-10-20 18:15:00
11:35 AM,48.2,42.8,82,29.88,10.0,SSE,9.2,-,0.00,,Scattered Clouds,150,2012-10-20 18:35:00
11:55 AM,48.2,42.8,82,29.88,10.0,South,8.1,-,0.00,,Partly Cloudy,170,2012-10-20 18:55:00
12:15 PM,48.2,42.8,82,29.88,10.0,SSE,8.1,-,0.00,,Scattered Clouds,160,2012-10-20 19:15:00
12:35 PM,48.2,42.8,82,29.88,10.0,South,6.9,-,0.00,,Scattered Clouds,190,2012-10-20 19:35:00
12:55 PM,48.2,42.8,82,29.88,10.0,SSE,11.5,-,0.00,,Mostly Cloudy,150,2012-10-20 19:55:00
1:15 PM,50.0,42.8,76,29.88,10.0,SSW,5.8,-,0.00,,Mostly Cloudy,200,2012-10-20 20:15:00
1:35 PM,48.2,42.8,82,29.88,10.0,South,8.1,-,0.00,,Mostly Cloudy,190,2012-10-20 20:35:00
2:15 PM,50.0,41.0,71,29.88,10.0,SW,6.9,-,0.00,,Mostly Cloudy,220,2012-10-20 21:15:00
3:15 PM,48.2,41.0,76,29.87,10.0,SSE,6.9,-,0.00,,Mostly Cloudy,160,2012-10-20 22:15:00
3:55 PM,48.2,42.8,82,29.86,10.0,SSE,6.9,-,0.00,,Partly Cloudy,150,2012-10-20 22:55:00
4:15 PM,48.2,41.0,76,29.85,10.0,ESE,10.4,-,0.00,,Clear,120,2012-10-20 23:15:00
4:35 PM,50.0,42.8,76,29.85,10.0,ESE,11.5,-,0.00,,Clear,120,2012-10-20 23:35:00
4:55 PM,48.2,42.8,82,29.85,10.0,ESE,11.5,-,0.00,,Scattered Clouds,110,2012-10-20 23:55:00
5:35 PM,46.4,41.0,81,29.84,10.0,ESE,12.7,17.3,0.00,,Partly Cloudy,120,2012-10-21 00:35:00
6:15 PM,44.6,41.0,87,29.83,10.0,East,8.1,-,0.00,,Mostly Cloudy,100,2012-10-21 01:15:00
6:35 PM,44.6,41.0,87,29.85,10.0,NW,6.9,-,0.00,,Overcast,320,2012-10-21 01:35:00
6:55 PM,44.6,41.0,87,29.85,10.0,NNW,5.8,-,0.00,,Overcast,330,2012-10-21 01:55:00
7:15 PM,44.6,41.0,87,29.86,10.0,Calm,Calm,-,0.00,,Overcast,0,2012-10-21 02:15:00
7:35 PM,44.6,39.2,81,29.86,10.0,East,9.2,-,0.00,,Overcast,90,2012-10-21 02:35:00
7:55 PM,42.8,41.0,93,29.85,10.0,ENE,6.9,-,0.00,,Overcast,60,2012-10-21 02:55:00
8:15 PM,42.8,41.0,93,29.85,10.0,East,5.8,-,0.00,,Overcast,80,2012-10-21 03:15:00
8:55 PM,44.6,42.8,93,29.85,10.0,SE,6.9,-,0.00,,Overcast,130,2012-10-21 03:55:00
9:35 PM,44.6,42.8,93,29.86,10.0,SE,5.8,-,0.00,,Overcast,140,2012-10-21 04:35:00
9:55 PM,44.6,42.8,93,29.85,10.0,SE,5.8,-,0.00,,Overcast,130,2012-10-21 04:55:00
10:35 PM,44.6,42.8,93,29.85,10.0,SE,6.9,-,0.00,,Overcast,140,2012-10-21 05:35:00
10:55 PM,44.6,41.0,87,29.85,10.0,SE,9.2,-,0.00,,Overcast,140,2012-10-21 05:55:00
11:15 PM,44.6,42.8,93,29.85,10.0,SE,8.1,-,0.00,,Overcast,140,2012-10-21 06:15:00
11:35 PM,44.6,42.8,93,29.86,10.0,SE,8.1,-,0.00,,Overcast,140,2012-10-21 06:35:00